Date String (YYYY-MM-DD hh:mm:ss) UTC,Instrument flags,Ambient pressure (hPa),Sample flow (lpm),Bypass flow (lpm),Sample temperature (°C),Ambient temperature (°C),ASC tube jacket temperature (°C),LED temperature (°C),Box temperature (°C),Sample RH (%),Span deviation,Mass concentration (μg/m³),Mass concentration (μg/m³),Mass concentration (μg/m³)
DateTimeUTC,F1_M11,P_M11,Q1_M11,Q2_M11,T1_M11,T2_M11,T3_M11,T4_M11,T5_M11,U1_M11,ZSPAN_M11,X0_M11,X2_M11,X1_M11
2021-11-27 13:00:00,,0829.2,5.01,0.00,25.8,24.9,00.0,35.1,27.5,08.5,0000.0,0009.77,0003.14,0001.98
2021-11-27 13:01:00,,0829.2,5.00,0.00,25.8,24.8,00.0,35.1,27.4,08.5,0000.0,0009.71,0003.13,0001.97
2021-11-27 13:02:00,,0828.9,5.01,0.00,25.7,24.8,00.0,35.0,27.4,08.6,0000.0,0009.84,0003.14,0001.97
2021-11-27 13:03:00,,0828.9,4.99,0.00,25.7,24.8,00.0,35.0,27.4,08.6,0000.0,0009.60,0003.14,0001.97
2021-11-27 13:04:00,,0829.0,5.01,0.00,25.7,24.8,00.0,35.0,27.4,08.6,0000.0,0009.53,0003.13,0001.96
2021-11-27 13:05:00,,0829.1,5.00,0.00,25.7,24.8,00.0,35.0,27.4,08.6,0000.0,0009.53,0003.12,0001.95
2021-11-27 13:06:00,,0829.1,5.00,0.00,25.7,24.8,00.0,34.9,27.4,08.6,0000.0,0008.85,0003.12,0001.94
2021-11-27 13:07:00,,0829.1,4.98,0.00,25.7,24.8,00.0,34.9,27.4,08.6,0000.0,0008.28,0003.12,0001.93
2021-11-27 13:08:00,,0829.1,5.01,0.00,25.7,24.8,00.0,34.9,27.4,08.6,0000.0,0007.41,0003.14,0001.93
2021-11-27 13:09:00,,0829.0,4.99,0.00,25.7,24.8,00.0,34.9,27.4,08.6,0000.0,0007.18,0003.12,0001.92
2021-11-27 13:10:00,,0829.0,5.01,0.00,25.7,24.8,00.0,34.9,27.4,08.7,0000.0,0007.14,0003.05,0001.91
2021-11-27 13:11:00,,0829.0,5.00,0.00,25.7,24.8,00.0,34.9,27.4,08.7,0000.0,0006.68,0002.97,0001.90
2021-11-27 13:12:00,,0829.0,5.01,0.00,25.7,24.8,00.0,34.9,27.4,08.6,0000.0,0006.81,0002.86,0001.88
2021-11-27 13:13:00,,0829.1,4.99,0.00,25.7,24.8,00.0,34.8,27.4,08.6,0000.0,0006.91,0002.79,0001.86
2021-11-27 13:14:00,,0829.1,5.01,0.00,25.6,24.8,00.0,34.8,27.4,08.6,0000.0,0006.54,0002.73,0001.83
2021-11-27 13:15:00,,0829.1,5.00,0.00,25.6,24.8,00.0,34.8,27.4,08.6,0000.0,0006.66,0002.74,0001.82
2021-11-27 13:16:00,,0829.1,5.00,0.00,25.6,24.8,00.0,34.8,27.4,08.6,0000.0,0006.69,0002.75,0001.81
2021-11-27 13:17:00,,0829.1,5.01,0.00,25.6,24.8,00.0,34.8,27.4,08.6,0000.0,0006.62,0002.71,0001.81
2021-11-27 13:18:00,,0829.1,4.99,0.00,25.6,24.8,00.0,34.8,27.3,08.6,0000.0,0006.36,0002.67,0001.81
2021-11-27 13:19:00,,0829.1,5.01,0.00,25.6,24.8,00.0,34.8,27.3,08.6,0000.0,0006.65,0002.66,0001.81
2021-11-27 13:20:00,,0829.2,4.99,0.00,25.6,24.8,00.0,34.7,27.3,08.6,0000.0,0006.74,0002.62,0001.80
2021-11-27 13:21:00,,0829.2,5.01,0.00,25.6,24.8,00.0,34.7,27.3,08.6,0000.0,0006.48,0002.60,0001.79
2021-11-27 13:22:00,,0829.2,5.01,0.00,25.6,24.8,00.0,34.7,27.4,08.6,0000.0,0006.27,0002.57,0001.78
2021-11-27 13:23:00,,0829.2,4.99,0.00,25.6,24.8,00.0,34.7,27.4,08.6,0000.0,0006.26,0002.60,0001.77
2021-11-27 13:24:00,,0829.1,5.01,0.00,25.6,24.8,00.0,34.7,27.4,08.7,0000.0,0006.14,0002.63,0001.77
2021-11-27 13:25:00,,0829.1,5.00,0.00,25.6,24.8,00.0,34.7,27.4,08.7,0000.0,0007.44,0002.61,0001.76
2021-11-27 13:26:00,,0829.1,5.00,0.00,25.6,24.8,00.0,34.7,27.4,08.7,0000.0,0007.43,0002.55,0001.73
2021-11-27 13:27:00,,0829.1,5.00,0.00,25.6,24.8,00.0,34.7,27.4,08.7,0000.0,0007.40,0002.54,0001.73
2021-11-27 13:28:00,,0829.1,4.99,0.00,25.6,24.8,00.0,34.7,27.3,08.7,0000.0,0007.25,0002.53,0001.70
2021-11-27 13:29:00,,0829.2,5.00,0.00,25.6,24.8,00.0,34.7,27.3,08.7,0000.0,0007.31,0002.50,0001.67
2021-11-27 13:30:00,,0829.2,5.00,0.00,25.6,24.8,00.0,34.7,27.3,08.7,0000.0,0007.34,0002.47,0001.64
2021-11-27 13:31:00,,0829.1,5.01,0.00,25.6,24.8,00.0,34.7,27.3,08.7,0000.0,0007.89,0002.54,0001.62
2021-11-27 13:32:00,,0829.1,4.99,0.00,25.6,24.8,00.0,34.7,27.3,08.7,0000.0,0007.88,0002.57,0001.62
2021-11-27 13:33:00,,0829.1,5.01,0.00,25.6,24.8,00.0,34.7,27.3,08.7,0000.0,0007.89,0002.58,0001.60
2021-11-27 13:34:00,,0829.2,5.00,0.00,25.5,24.8,00.0,34.6,27.3,08.7,0000.0,0007.84,0002.55,0001.59
2021-11-27 13:35:00,,0829.2,5.01,0.00,25.5,24.7,00.0,34.6,27.3,08.7,0000.0,0008.10,0002.49,0001.58
2021-11-27 13:36:00,,0829.2,4.99,0.00,25.5,24.7,00.0,34.6,27.2,08.7,0000.0,0008.34,0002.52,0001.58
2021-11-27 13:37:00,,0829.3,5.01,0.00,25.5,24.6,00.0,34.6,27.2,08.7,0000.0,0008.37,0002.54,0001.60
2021-11-27 13:38:00,,0829.2,4.99,0.00,25.5,24.6,00.0,34.6,27.2,08.7,0000.0,0008.45,0002.57,0001.59
2021-11-27 13:39:00,,0829.2,5.01,0.00,25.5,24.7,00.0,34.6,27.2,08.7,0000.0,0008.47,0002.55,0001.60
2021-11-27 13:40:00,,0829.2,5.00,0.00,25.5,24.7,00.0,34.6,27.2,08.7,0000.0,0008.48,0002.59,0001.63
2021-11-27 13:41:00,,0829.2,5.00,0.00,25.5,24.7,00.0,34.6,27.2,08.7,0000.0,0008.53,0002.68,0001.65
2021-11-27 13:42:00,,0829.3,4.99,0.00,25.5,24.7,00.0,34.6,27.2,08.7,0000.0,0007.79,0002.62,0001.67
2021-11-27 13:43:00,,0829.2,5.01,0.00,25.5,24.7,00.0,34.6,27.2,08.7,0000.0,0007.69,0002.61,0001.70
2021-11-27 13:44:00,,0829.3,4.98,0.00,25.4,24.6,00.0,34.6,27.2,08.8,0000.0,0007.77,0002.64,0001.72
2021-11-27 13:45:00,,0829.2,5.00,0.00,25.4,24.6,00.0,34.5,27.1,08.9,0000.0,0007.91,0002.72,0001.76
2021-11-27 13:46:00,,0829.2,5.00,0.00,25.4,24.5,00.0,34.5,27.1,09.0,0000.0,0007.92,0002.82,0001.79
2021-11-27 13:47:00,,0829.3,5.00,0.00,25.4,24.4,00.0,34.5,27.0,08.9,0000.0,0005.74,0002.83,0001.80
2021-11-27 13:48:00,,0829.2,5.00,0.00,25.3,24.4,00.0,34.5,27.0,08.9,0000.0,0005.48,0002.84,0001.83
2021-11-27 13:49:00,,0829.2,5.01,0.00,25.3,24.4,00.0,34.5,27.0,08.9,0000.0,0005.33,0002.84,0001.86
2021-11-27 13:50:00,,0829.3,4.99,0.00,25.3,24.4,00.0,34.5,27.0,08.9,0000.0,0005.39,0002.90,0001.89
2021-11-27 13:51:00,,0829.2,5.01,0.00,25.3,24.3,00.0,34.4,26.9,08.9,0000.0,0005.47,0002.93,0001.90
2021-11-27 13:52:00,,0829.2,4.99,0.00,25.2,24.3,00.0,34.4,26.9,08.9,0000.0,0006.02,0002.93,0001.92
2021-11-27 13:53:00,,0829.3,5.00,0.00,25.2,24.2,00.0,34.4,26.9,08.9,0000.0,0006.43,0002.94,0001.93
2021-11-27 13:54:00,,0829.3,5.01,0.00,25.2,24.2,00.0,34.4,26.8,09.0,0000.0,0006.34,0002.99,0001.96
2021-11-27 13:55:00,,0829.3,4.98,0.00,25.2,24.2,00.0,34.4,26.8,09.0,0000.0,0006.70,0003.04,0002.01
2021-11-27 13:56:00,,0829.4,5.01,0.00,25.1,24.2,00.0,34.3,26.8,09.1,0000.0,0007.01,0003.09,0002.05
2021-11-27 13:57:00,,0829.4,5.00,0.00,25.1,24.1,00.0,34.3,26.8,09.2,0000.0,0007.70,0003.10,0002.09
2021-11-27 13:58:00,,0829.5,5.01,0.00,25.1,24.1,00.0,34.3,26.7,09.4,0000.0,0008.03,0003.20,0002.16
2021-11-27 13:59:00,,0829.5,4.99,0.00,25.1,24.0,00.0,34.3,26.7,09.4,0000.0,0008.21,0003.27,0002.22
